Hourly Weather Bartazek

Today, 19 April, Monday

Time Temperature Precipitation Wind Pressure Humidity
00:00 +7°C° 0.1 mm 2 mps 754 mmHg 94%
01:00 +7°C° 0 mm 2 mps 753 mmHg 93%
02:00 +7°C° 0 mm 2 mps 753 mmHg 91%
03:00 +7°C° 0 mm 2 mps 753 mmHg 90%
04:00 +7°C° 0 mm 2 mps 753 mmHg 89%
05:00 +8°C° 0 mm 2 mps 753 mmHg 87%
06:00 +9°C° 0 mm 2 mps 753 mmHg 84%
07:00 +10°C° 0 mm 2 mps 753 mmHg 81%
08:00 +11°C° 0.2 mm 3 mps 753 mmHg 76%
09:00 +13°C° 0.2 mm 3 mps 753 mmHg 70%
10:00 +16°C° 0.2 mm 3 mps 753 mmHg 64%
11:00 +16°C° 0.4 mm 3 mps 753 mmHg 60%
12:00 +16°C° 0.4 mm 3 mps 753 mmHg 56%
13:00 +17°C° 0.4 mm 3 mps 753 mmHg 51%
14:00 +16°C° 0.3 mm 2 mps 753 mmHg 55%
15:00 +15°C° 0.3 mm 2 mps 753 mmHg 59%
16:00 +15°C° 0.3 mm 2 mps 752 mmHg 62%
17:00 +13°C° 0 mm 2 mps 752 mmHg 65%
18:00 +12°C° 0 mm 1 mps 753 mmHg 69%
19:00 +11°C° 0 mm 1 mps 753 mmHg 72%
20:00 +10°C° 0 mm 1 mps 753 mmHg 76%
21:00 +8°C° 0 mm 2 mps 753 mmHg 79%
22:00 +8°C° 0 mm 2 mps 753 mmHg 83%
23:00 +7°C° 0 mm 2 mps 753 mmHg 84%

Tomorrow, 20 April, Tuesday

Time Temperature Precipitation Wind Pressure Humidity
00:00 +7°C° 0 mm 2 mps 753 mmHg 85%
01:00 +6°C° 0 mm 2 mps 753 mmHg 86%
02:00 +6°C° 0 mm 2 mps 752 mmHg 87%
03:00 +5°C° 0 mm 2 mps 752 mmHg 89%
04:00 +5°C° 0 mm 2 mps 752 mmHg 90%
05:00 +6°C° 0 mm 2 mps 752 mmHg 85%
06:00 +7°C° 0 mm 2 mps 752 mmHg 80%
07:00 +9°C° 0 mm 2 mps 752 mmHg 75%
08:00 +10°C° 0.1 mm 2 mps 752 mmHg 69%
09:00 +12°C° 0.1 mm 2 mps 751 mmHg 63%
10:00 +14°C° 0.1 mm 2 mps 751 mmHg 57%
11:00 +14°C° 0.3 mm 2 mps 751 mmHg 56%
12:00 +14°C° 0.3 mm 2 mps 750 mmHg 54%
13:00 +15°C° 0.3 mm 2 mps 750 mmHg 53%
14:00 +15°C° 0.1 mm 2 mps 750 mmHg 54%
15:00 +13°C° 0.1 mm 3 mps 749 mmHg 55%
16:00 +13°C° 0.1 mm 3 mps 749 mmHg 56%
17:00 +13°C° 0.1 mm 2 mps 749 mmHg 64%
18:00 +10°C° 0.1 mm 2 mps 749 mmHg 73%
19:00 +9°C° 0.1 mm 2 mps 749 mmHg 81%
20:00 +8°C° 0 mm 2 mps 749 mmHg 83%
21:00 +8°C° 0 mm 1 mps 749 mmHg 85%
22:00 +8°C° 0 mm 1 mps 748 mmHg 88%
23:00 +7°C° 0 mm 1 mps 748 mmHg 88%

Day after tomorrow, 21 April, Wednesday

Time Temperature Precipitation Wind Pressure Humidity
00:00 +6°C° 0 mm 2 mps 748 mmHg 88%
01:00 +5°C° 0 mm 2 mps 748 mmHg 88%
02:00 +5°C° 0 mm 2 mps 748 mmHg 88%
03:00 +5°C° 0 mm 2 mps 747 mmHg 88%
04:00 +4°C° 0 mm 2 mps 747 mmHg 88%
05:00 +6°C° 0 mm 2 mps 747 mmHg 82%
06:00 +7°C° 0 mm 2 mps 747 mmHg 76%
07:00 +8°C° 0 mm 2 mps 747 mmHg 70%
08:00 +10°C° 0 mm 2 mps 747 mmHg 64%
09:00 +12°C° 0 mm 2 mps 747 mmHg 58%
10:00 +13°C° 0 mm 3 mps 746 mmHg 52%
11:00 +13°C° 0 mm 3 mps 746 mmHg 51%
12:00 +13°C° 0 mm 3 mps 746 mmHg 49%
13:00 +13°C° 0 mm 3 mps 745 mmHg 47%
14:00 +14°C° 0.1 mm 2 mps 745 mmHg 50%
15:00 +14°C° 0.1 mm 2 mps 745 mmHg 52%
16:00 +14°C° 0.1 mm 2 mps 745 mmHg 54%
17:00 +13°C° 0.3 mm 2 mps 745 mmHg 63%
18:00 +10°C° 0.3 mm 2 mps 745 mmHg 71%
19:00 +10°C° 0.3 mm 1 mps 745 mmHg 80%
20:00 +8°C° 0.1 mm 2 mps 745 mmHg 83%
21:00 +7°C° 0.1 mm 3 mps 745 mmHg 87%
22:00 +5°C° 0.1 mm 4 mps 745 mmHg 91%
23:00 +5°C° 0.1 mm 4 mps 745 mmHg 89%

22 April, Thursday

Time Temperature Precipitation Wind Pressure Humidity
00:00 +4°C° 0.1 mm 4 mps 745 mmHg 88%
01:00 +4°C° 0.1 mm 4 mps 745 mmHg 87%
02:00 +3°C° 0 mm 4 mps 745 mmHg 88%
03:00 +1°C° 0 mm 4 mps 746 mmHg 88%
04:00 0°C° 0 mm 4 mps 746 mmHg 89%
05:00 +1°C° 0 mm 4 mps 746 mmHg 84%
06:00 +1°C° 0 mm 5 mps 746 mmHg 79%
07:00 +1°C° 0 mm 6 mps 746 mmHg 74%
08:00 +2°C° 0 mm 6 mps 746 mmHg 67%
09:00 +3°C° 0 mm 6 mps 746 mmHg 59%
10:00 +4°C° 0 mm 6 mps 746 mmHg 51%
11:00 +5°C° 0 mm 7 mps 746 mmHg 49%
12:00 +5°C° 0 mm 7 mps 746 mmHg 47%
13:00 +6°C° 0 mm 7 mps 746 mmHg 44%
14:00 +6°C° 0.1 mm 7 mps 746 mmHg 48%
15:00 +7°C° 0.1 mm 6 mps 746 mmHg 52%
16:00 +5°C° 0.1 mm 6 mps 747 mmHg 55%
17:00 +5°C° 0 mm 5 mps 746 mmHg 60%
18:00 +5°C° 0 mm 5 mps 746 mmHg 64%
19:00 +4°C° 0 mm 4 mps 746 mmHg 68%
20:00 +3°C° 0.1 mm 4 mps 746 mmHg 75%
21:00 +3°C° 0.1 mm 4 mps 746 mmHg 81%
22:00 +1°C° 0.1 mm 4 mps 746 mmHg 87%
23:00 +1°C° 0.1 mm 4 mps 746 mmHg 89%

23 April, Friday

Time Temperature Precipitation Wind Pressure Humidity
00:00 +1°C° 0.1 mm 4 mps 746 mmHg 91%
01:00 +1°C° 0.1 mm 4 mps 746 mmHg 93%
02:00 0°C° 0 mm 4 mps 746 mmHg 93%
03:00 0°C° 0 mm 4 mps 746 mmHg 94%
04:00 0°C° 0 mm 5 mps 746 mmHg 94%
05:00 0°C° 0 mm 5 mps 747 mmHg 90%
06:00 +1°C° 0 mm 5 mps 747 mmHg 87%
07:00 +2°C° 0 mm 5 mps 747 mmHg 83%
08:00 +2°C° 0.2 mm 5 mps 748 mmHg 83%
09:00 +3°C° 0.2 mm 6 mps 748 mmHg 82%
10:00 +3°C° 0.2 mm 6 mps 748 mmHg 82%
11:00 +3°C° 0.2 mm 6 mps 749 mmHg 79%
12:00 +4°C° 0.2 mm 7 mps 749 mmHg 76%
13:00 +4°C° 0.2 mm 7 mps 750 mmHg 74%
14:00 +4°C° 0.2 mm 7 mps 750 mmHg 70%
15:00 +4°C° 0.2 mm 6 mps 750 mmHg 66%
16:00 +4°C° 0.2 mm 6 mps 751 mmHg 61%
17:00 +4°C° 0 mm 4 mps 751 mmHg 67%
18:00 +3°C° 0 mm 3 mps 751 mmHg 72%
19:00 +2°C° 0 mm 2 mps 751 mmHg 77%
20:00 +2°C° 0 mm 2 mps 751 mmHg 78%
21:00 +2°C° 0 mm 1 mps 751 mmHg 79%
22:00 +2°C° 0 mm 1 mps 751 mmHg 80%
23:00 +2°C° 0 mm 1 mps 750 mmHg 80%

24 April, Saturday

Time Temperature Precipitation Wind Pressure Humidity
00:00 +2°C° 0 mm 1 mps 750 mmHg 80%
01:00 +2°C° 0 mm 1 mps 750 mmHg 80%
02:00 +2°C° 0 mm 1 mps 750 mmHg 80%
03:00 +2°C° 0 mm 1 mps 750 mmHg 80%
04:00 +2°C° 0 mm 1 mps 750 mmHg 80%
05:00 +3°C° 0.1 mm 1 mps 750 mmHg 78%
06:00 +3°C° 0.1 mm 1 mps 750 mmHg 76%
07:00 +3°C° 0.1 mm 2 mps 751 mmHg 74%
08:00 +3°C° 0.1 mm 3 mps 751 mmHg 66%
09:00 +4°C° 0.1 mm 4 mps 751 mmHg 59%
10:00 +5°C° 0.1 mm 4 mps 751 mmHg 51%
11:00 +5°C° 0.2 mm 5 mps 752 mmHg 47%
12:00 +6°C° 0.2 mm 5 mps 752 mmHg 44%
13:00 +6°C° 0.2 mm 5 mps 752 mmHg 40%
14:00 +5°C° 0 mm 6 mps 752 mmHg 42%
15:00 +4°C° 0 mm 6 mps 752 mmHg 44%
16:00 +4°C° 0 mm 6 mps 753 mmHg 46%
17:00 +3°C° 0 mm 5 mps 753 mmHg 54%
18:00 +1°C° 0 mm 5 mps 753 mmHg 62%
19:00 0°C° 0 mm 4 mps 754 mmHg 69%
20:00 -1°C° 0 mm 4 mps 754 mmHg 74%
21:00 -1°C° 0 mm 3 mps 755 mmHg 79%
22:00 -2°C° 0 mm 3 mps 755 mmHg 84%
23:00 -2°C° 0 mm 3 mps 755 mmHg 85%
Show more